AT491 Weather Reports


time (UTC)temp
C
wind
direction
speed
KPH
gust
KPH
rain 1hr
cm
rain 24hr
cm
rain mn
cm
humidity
%
barometer
mb
20260505124602 1 0 0.0 0.0 0.00 0.00 0.00 85 1012.5
20260505123110 1 0 0.0 0.0 0.00 0.00 0.00 85 1012.5
20260505121600 1 0 0.0 0.0 0.00 0.00 0.00 84 1012.5
20260505024601 15 286 4.8 11.3 0.00 0.00 0.00 18 1011.2
20260505023059 15 297 4.8 20.9 0.00 0.00 0.00 19 1011.1
20260505021557 15 308 4.8 19.3 0.00 0.00 0.00 19 1010.8
20260505014610 16 270 6.4 19.3 0.00 0.00 0.00 18 1010.0
20260505013059 16 293 6.4 24.1 0.00 0.00 0.00 19 1010.0
20260505011601 16 253 6.4 17.7 0.00 0.00 0.00 19 1009.5
20260505010104 17 323 3.2 17.7 0.00 0.00 0.00 19 1009.4
20260505004559 17 288 4.8 19.3 0.00 0.00 0.00 19 1009.6
20260505003106 17 339 3.2 16.1 0.00 0.00 0.00 20 1009.5
20260505001601 17 229 4.8 16.1 0.00 0.00 0.00 19 1009.6
20260504234558 18 336 4.8 20.9 0.00 0.00 0.00 20 1009.4
20260504233100 18 265 6.4 20.9 0.00 0.00 0.00 20 1009.5
20260504231559 19 0 3.2 29.0 0.00 0.00 0.00 20 1009.3
20260504230057 20 243 1.6 19.3 0.00 0.00 0.00 21 1009.3
20260504224558 20 0 4.8 20.9 0.00 0.00 0.00 22 1009.2
20260504223122 20 240 6.4 20.9 0.00 0.00 0.00 20 1009.4
20260504221603 20 288 6.4 19.3 0.00 0.00 0.00 21 1009.5
20260504214558 21 308 6.4 19.3 0.00 0.00 0.00 21 1010.1
20260504213105 20 265 4.8 19.3 0.00 0.00 0.00 21 1010.4
20260504211644 20 319 3.2 12.9 0.00 0.00 0.00 21 1010.6
20260504210055 19 290 4.8 17.7 0.00 0.00 0.00 21 1011.0
20260504204556 19 345 4.8 16.1 0.00 0.00 0.00 21 1011.5
20260504203107 19 0 3.2 17.7 0.00 0.00 0.00 22 1011.7
20260504201612 18 257 6.4 24.1 0.00 0.00 0.00 22 1011.8
20260504200055 18 304 11.3 27.4 0.00 0.00 0.00 23 1012.2
20260504194557 18 283 3.2 20.9 0.00 0.00 0.00 23 1012.3
20260504193105 18 320 8.0 19.3 0.00 0.00 0.00 25 1012.3
20260504191611 18 290 8.0 20.9 0.00 0.00 0.00 26 1012.2
20260504190107 18 293 8.0 20.9 0.00 0.00 0.00 28 1012.3
20260504184557 18 266 4.8 17.7 0.00 0.00 0.00 29 1012.5
20260504183055 17 298 8.0 29.0 0.00 0.00 0.00 28 1012.9
20260504181603 17 307 9.7 29.0 0.00 0.00 0.00 30 1012.9
20260504180059 17 293 6.4 32.2 0.00 0.00 0.00 32 1013.2
20260504174556 17 269 6.4 25.7 0.00 0.00 0.00 31 1013.3
20260504173059 16 360 4.8 20.9 0.00 0.00 0.00 32 1013.4
20260504171558 16 0 6.4 20.9 0.00 0.00 0.00 33 1013.6